Weather in Torrey Pines Park

United States     32°53′25″N   117°15′03″W
temp.,
°C
wind,
m/s
gust,
m/s
humid.,
%
clouds,
%
prec.,
mm/h
press.,
hPa
HPBL,
m
7 may, fri
fri723:00+15w117956 0.0 1017403
02:00+14w118047 0.0 1016315
05:00+14wsw118152 0.0 1016328
08:00+15sse127424 0.0 1016422
11:00+17wsw43673 0.0 1016506
14:00+17sw446738 0.0 1015586
17:00+17sw446837 0.0 1013562
20:00+15sw337869 0.0 1014546
8 may, sat
sat823:00+15ssw337655 0.0 1014574
02:00+15s337589 0.1 1013652
05:00+15sse337148 0.1 1013692
08:00+16s33680 0.0 1014667
11:00+18sw54603 0.0 1014729
14:00+18sw55605 0.0 1013654
17:00+18sw44622 0.0 1012590
20:00+16sw33720 0.0 1013447
9 may, sun
sun923:00+16s34750 0.0 1013378
02:00+15s34790 0.0 1012360
05:00+14s348212 0.0 1012400
08:00+16sse347541 0.0 1013610
11:00+18ssw55620 0.0 1012733
14:00+19ssw66613 0.0 1011692
17:00+18ssw66659 0.0 1010731
20:00+16s567344 0.0 1010673
10 may, mon
mon1023:00+16s567596 0.1 1011778
02:00+16sse567295 0.1 1010920
05:00+16sse457099 0.3 1010876
08:00+16sse446795 0.1 1011865
11:00+18ssw55600 0.1 1011889
14:00+18sw66611 0.0 1011824
17:00+17ssw55630 0.0 1011704
20:00+16ssw34700 0.0 1012540
11 may, tue
tue1123:00+15ssw33751 0.0 1013479
02:00+15ssw22784 0.0 1012405
05:00+14w11802 0.0 1013232
08:00+15wnw117511 0.0 1014436
11:00+18w42672 0.0 1014576
14:00+18w53680 0.0 1014514
17:00+18w43690 0.0 1013480
20:00+16w22750 0.0 1014248